St. Paul Lake Elmo, MN

7:29 PM CST on November 13, 2019 (GMT -0600)
St. Paul Lake Elmo

Weather History for K21D - September, 2019

Change the Weather History Date:

Friday, September 13, 2019

  Actual Average (KSTP) Record (KSTP)
Temperature  
Mean Temperature 58 °F -  
Max Temperature 64 °F 73 °F 93 °F (1998)
Min Temperature 53 °F 52 °F 37 °F (2014)
Degree Days  
Heating Degree Days 6    
Growing Degree Days 8 (Base 50)    
Moisture  
Dew Point 53 °F    
Average Humidity 85    
Maximum Humidity 100    
Minimum Humidity 72    
Precipitation  
Precipitation 0.00 in - - ()
Sea Level Pressure  
Sea Level Pressure 29.95 in    
Wind  
Wind Speed 11 mph (WSW)    
Max Wind Speed 23 mph    
Max Gust Speed 34 mph    
Visibility 10 miles    
Events Rain    
Averages and records for this station are not official NWS values.
T = Trace of Precipitation, MM = Missing Value Source: NWS Daily Summary

Daily Weather History Graph

Daily Weather History Graph

Search for Another Location

Airport or City:

Astronomy

Sep. 13, 2019 Rise Set
Actual Time 6:47 AM CDT 7:26 PM CDT
Civil Twilight 6:17 AM CDT 7:55 PM CDT
Nautical Twilight 5:42 AM CDT 8:30 PM CDT
Astronomical Twilight 5:06 AM CDT 9:07 PM CDT
Moon 7:43 PM CDT (9/13) 6:00 AM CDT (9/13)
Length of Visible Light 13h 38m
Length of Day
12h 38m
Full, 100% of the Moon is Illuminated
Sep 13
Full
Sep 13
Full
Sep 21
Last Quarter
Sep 28
New
Oct 5
First Quarter

Hourly Weather History & Observations

Time (CDT) Temp. Dew Point Humidity Pressure Visibility Wind Dir Wind Speed Gust Speed Precip Events Conditions
12:15 AM 64.4 °F 64.4 °F 100% 29.83 in 10.0 mi WSW 8.1 mph - N/A   Overcast
12:20 AM 64.4 °F 64.4 °F 100% 29.84 in 10.0 mi WSW 8.1 mph - N/A   Mostly Cloudy
12:37 AM 64.4 °F 62.6 °F 94% 29.83 in 10.0 mi WSW 5.8 mph - N/A   Scattered Clouds
12:56 AM 62.6 °F 62.6 °F 100% 29.83 in 10.0 mi WSW 9.2 mph - N/A   Clear
1:15 AM 62.6 °F 60.8 °F 94% 29.82 in 10.0 mi WSW 5.8 mph - N/A   Clear
1:16 AM 62.6 °F 60.8 °F 94% 29.82 in 10.0 mi WSW 5.8 mph - N/A   Clear
1:35 AM 62.6 °F 60.8 °F 94% 29.82 in 10.0 mi WSW 4.6 mph - N/A   Mostly Cloudy
1:58 AM 60.8 °F 60.8 °F 100% 29.82 in 10.0 mi WSW 4.6 mph - N/A   Scattered Clouds
2:16 AM 60.8 °F 59.0 °F 94% 29.81 in 10.0 mi WSW 5.8 mph - N/A   Scattered Clouds
2:36 AM 60.8 °F 59.0 °F 94% 29.82 in 10.0 mi WSW 8.1 mph - N/A   Clear
2:55 AM 60.8 °F 59.0 °F 94% 29.82 in 10.0 mi WSW 9.2 mph - N/A   Clear
2:56 AM 60.8 °F 59.0 °F 94% 29.82 in 10.0 mi WSW 10.4 mph - N/A   Clear
3:15 AM 60.8 °F 59.0 °F 94% 29.82 in 10.0 mi WSW 12.7 mph - N/A   Scattered Clouds
3:20 AM 60.8 °F 59.0 °F 94% 29.82 in 10.0 mi WSW 13.8 mph - N/A   Scattered Clouds
3:37 AM 60.8 °F 59.0 °F 94% 29.82 in 10.0 mi WSW 10.4 mph 17.3 mph N/A   Mostly Cloudy
3:55 AM 60.8 °F 59.0 °F 94% 29.82 in 7.0 mi WSW 13.8 mph 18.4 mph N/A   Overcast
4:15 AM 60.8 °F 59.0 °F 94% 29.82 in 7.0 mi WSW 10.4 mph - N/A   Overcast
4:16 AM 60.8 °F 59.0 °F 94% 29.82 in 7.0 mi WSW 10.4 mph - N/A   Overcast
4:35 AM 59.0 °F 59.0 °F 100% 29.83 in 10.0 mi WSW 10.4 mph - N/A   Overcast
4:58 AM 59.0 °F 57.2 °F 94% 29.83 in 10.0 mi WSW 9.2 mph - N/A   Mostly Cloudy
5:15 AM 59.0 °F 55.4 °F 88% 29.84 in 10.0 mi WSW 12.7 mph 17.3 mph N/A   Mostly Cloudy
5:35 AM 57.2 °F 55.4 °F 94% 29.84 in 7.0 mi WSW 12.7 mph 20.7 mph N/A   Mostly Cloudy
5:36 AM 57.2 °F 55.4 °F 94% 29.84 in 7.0 mi WSW 12.7 mph 20.7 mph N/A   Mostly Cloudy
5:55 AM 57.2 °F 55.4 °F 94% 29.85 in 10.0 mi WSW 9.2 mph - N/A   Overcast
5:56 AM 57.2 °F 55.4 °F 94% 29.85 in 10.0 mi WSW 9.2 mph - N/A   Overcast
6:19 AM 57.2 °F 53.6 °F 88% 29.85 in 10.0 mi WSW 10.4 mph 19.6 mph N/A   Mostly Cloudy
6:36 AM 57.2 °F 55.4 °F 94% 29.86 in 10.0 mi WSW 9.2 mph - N/A   Overcast
6:55 AM 57.2 °F 55.4 °F 94% 29.86 in 10.0 mi WSW 11.5 mph - N/A   Overcast
7:15 AM 57.2 °F 53.6 °F 88% 29.86 in 10.0 mi WSW 11.5 mph - N/A   Overcast
7:16 AM 57.2 °F 53.6 °F 88% 29.86 in 10.0 mi WSW 10.4 mph - N/A   Overcast
7:35 AM 57.2 °F 53.6 °F 88% 29.87 in 10.0 mi WSW 16.1 mph 20.7 mph N/A   Overcast
7:39 AM 55.4 °F 53.6 °F 94% 29.87 in 7.0 mi WSW 13.8 mph 20.7 mph N/A   Overcast
7:58 AM 55.4 °F 53.6 °F 94% 29.88 in 5.0 mi WSW 12.7 mph 19.6 mph N/A   Overcast
8:16 AM 55.4 °F 53.6 °F 94% 29.88 in 3.0 mi WSW 13.8 mph 20.7 mph N/A Rain Light Rain
8:35 AM 55.4 °F 53.6 °F 94% 29.89 in 10.0 mi WSW 16.1 mph 23.0 mph N/A   Overcast
8:55 AM 55.4 °F 51.8 °F 88% 29.89 in 10.0 mi WSW 11.5 mph 21.9 mph N/A   Overcast
8:56 AM 55.4 °F 51.8 °F 88% 29.89 in 10.0 mi WSW 13.8 mph 21.9 mph N/A   Overcast
9:18 AM 55.4 °F 51.8 °F 88% 29.90 in 10.0 mi WSW 13.8 mph 24.2 mph N/A   Overcast
9:35 AM 55.4 °F 51.8 °F 88% 29.91 in 10.0 mi WSW 16.1 mph 20.7 mph N/A   Overcast
9:55 AM 57.2 °F 51.8 °F 82% 29.92 in 10.0 mi WSW 17.3 mph 25.3 mph N/A   Mostly Cloudy
10:15 AM 55.4 °F 50.0 °F 82% 29.93 in 10.0 mi WSW 17.3 mph 28.8 mph N/A   Overcast
10:38 AM 59.0 °F 51.8 °F 77% 29.94 in 10.0 mi WSW 19.6 mph 25.3 mph N/A   Overcast
10:55 AM 55.4 °F 50.0 °F 82% 29.94 in 10.0 mi WSW 16.1 mph 28.8 mph N/A   Mostly Cloudy
11:15 AM 57.2 °F 50.0 °F 77% 29.94 in 10.0 mi WSW 19.6 mph - N/A   Mostly Cloudy
11:16 AM 57.2 °F 50.0 °F 77% 29.94 in 10.0 mi WSW 19.6 mph - N/A   Mostly Cloudy
11:35 AM 57.2 °F 50.0 °F 77% 29.96 in 10.0 mi WSW 17.3 mph 26.5 mph N/A   Overcast
11:58 AM 55.4 °F 48.2 °F 77% 29.97 in 10.0 mi WSW 15.0 mph 26.5 mph N/A   Overcast
12:16 PM 59.0 °F 50.0 °F 72% 29.97 in 10.0 mi WSW 18.4 mph 26.5 mph N/A   Mostly Cloudy
12:35 PM 57.2 °F 50.0 °F 77% 29.97 in 10.0 mi WSW 19.6 mph 25.3 mph N/A   Overcast
12:36 PM 57.2 °F 50.0 °F 77% 29.97 in 10.0 mi WSW 18.4 mph 25.3 mph N/A   Overcast
12:55 PM 57.2 °F 50.0 °F 77% 29.98 in 10.0 mi WSW 17.3 mph 29.9 mph N/A   Overcast
12:56 PM 57.2 °F 50.0 °F 77% 29.98 in 10.0 mi WSW 23.0 mph 34.5 mph N/A   Overcast
1:18 PM 57.2 °F 50.0 °F 77% 29.97 in 10.0 mi WSW 16.1 mph 29.9 mph N/A   Overcast
1:36 PM 59.0 °F 50.0 °F 72% 29.97 in 10.0 mi WSW 17.3 mph 25.3 mph N/A   Overcast
1:56 PM 59.0 °F 50.0 °F 72% 29.98 in 10.0 mi WSW 16.1 mph 26.5 mph N/A   Overcast
2:15 PM 59.0 °F 50.0 °F 72% 29.98 in 10.0 mi WSW 23.0 mph 29.9 mph N/A   Overcast
2:16 PM 59.0 °F 50.0 °F 72% 29.98 in 10.0 mi WSW 21.9 mph 29.9 mph N/A   Overcast
2:38 PM 57.2 °F 50.0 °F 77% 29.99 in 10.0 mi WSW 11.5 mph 25.3 mph N/A   Overcast
2:56 PM 57.2 °F 50.0 °F 77% 29.99 in 10.0 mi WSW 12.7 mph 24.2 mph N/A   Overcast
3:16 PM 57.2 °F 51.8 °F 82% 29.99 in 10.0 mi WSW 17.3 mph 27.6 mph N/A   Overcast
3:35 PM 59.0 °F 51.8 °F 77% 30.00 in 10.0 mi WSW 16.1 mph 21.9 mph N/A   Overcast
3:36 PM 59.0 °F 51.8 °F 77% 30.00 in 10.0 mi WSW 16.1 mph 21.9 mph N/A   Overcast
3:55 PM 59.0 °F 50.0 °F 72% 30.00 in 10.0 mi WSW 18.4 mph 29.9 mph N/A   Overcast
4:17 PM 57.2 °F 50.0 °F 77% 30.01 in 10.0 mi WSW 18.4 mph 24.2 mph N/A   Overcast
4:35 PM 59.0 °F 50.0 °F 72% 30.01 in 10.0 mi WSW 17.3 mph 23.0 mph N/A   Overcast
4:55 PM 59.0 °F 50.0 °F 72% 30.02 in 10.0 mi WSW 15.0 mph 28.8 mph N/A   Overcast
4:56 PM 59.0 °F 50.0 °F 72% 30.02 in 10.0 mi WSW 12.7 mph 28.8 mph N/A   Overcast
5:15 PM 59.0 °F 50.0 °F 72% 30.02 in 10.0 mi WSW 15.0 mph 19.6 mph N/A   Overcast
5:16 PM 59.0 °F 50.0 °F 72% 30.02 in 10.0 mi WSW 12.7 mph 19.6 mph N/A   Overcast
5:38 PM 59.0 °F 50.0 °F 72% 30.02 in 10.0 mi WSW 16.1 mph - N/A   Overcast
5:56 PM 59.0 °F 50.0 °F 72% 30.02 in 10.0 mi WSW 16.1 mph 23.0 mph N/A   Overcast
6:15 PM 59.0 °F 50.0 °F 72% 30.03 in 10.0 mi WSW 12.7 mph 17.3 mph N/A   Overcast
6:35 PM 59.0 °F 51.8 °F 77% 30.03 in 10.0 mi WSW 12.7 mph 18.4 mph N/A   Overcast
6:36 PM 59.0 °F 51.8 °F 77% 30.03 in 10.0 mi WSW 13.8 mph 18.4 mph N/A   Overcast
6:55 PM 59.0 °F 50.0 °F 72% 30.04 in 10.0 mi WSW 11.5 mph 17.3 mph N/A   Overcast
7:16 PM 59.0 °F 50.0 °F 72% 30.04 in 10.0 mi WSW 10.4 mph - N/A   Overcast
7:35 PM 59.0 °F 51.8 °F 77% 30.05 in 10.0 mi WSW 8.1 mph - N/A   Overcast
7:36 PM 59.0 °F 51.8 °F 77% 30.05 in 10.0 mi WSW 8.1 mph - N/A   Overcast
7:55 PM 57.2 °F 51.8 °F 82% 30.06 in 10.0 mi WSW 6.9 mph - N/A   Overcast
7:59 PM 57.2 °F 51.8 °F 82% 30.06 in 10.0 mi WSW 6.9 mph - N/A   Overcast
8:16 PM 57.2 °F 51.8 °F 82% 30.06 in 10.0 mi WSW 8.1 mph - N/A   Mostly Cloudy
8:36 PM 55.4 °F 51.8 °F 88% 30.07 in 10.0 mi WSW 8.1 mph - N/A   Mostly Cloudy
8:55 PM 57.2 °F 51.8 °F 82% 30.08 in 10.0 mi WSW 5.8 mph - N/A   Overcast
8:56 PM 57.2 °F 51.8 °F 82% 30.08 in 10.0 mi WSW 5.8 mph - N/A   Overcast
9:15 PM 57.2 °F 51.8 °F 82% 30.08 in 10.0 mi WSW 6.9 mph - N/A   Overcast
9:19 PM 57.2 °F 51.8 °F 82% 30.08 in 10.0 mi WSW 5.8 mph - N/A   Overcast
9:38 PM 57.2 °F 51.8 °F 82% 30.08 in 10.0 mi WSW 4.6 mph - N/A   Overcast
9:56 PM 55.4 °F 51.8 °F 88% 30.08 in 10.0 mi WSW 8.1 mph - N/A   Overcast
10:15 PM 55.4 °F 51.8 °F 88% 30.08 in 10.0 mi WSW 5.8 mph - N/A   Overcast
10:16 PM 55.4 °F 51.8 °F 88% 30.08 in 10.0 mi WSW 6.9 mph - N/A   Mostly Cloudy
10:35 PM 55.4 °F 50.0 °F 82% 30.09 in 10.0 mi WSW 6.9 mph - N/A   Scattered Clouds
10:40 PM 55.4 °F 50.0 °F 82% 30.08 in 10.0 mi WSW 6.9 mph - N/A   Scattered Clouds
10:58 PM 53.6 °F 50.0 °F 88% 30.09 in 10.0 mi WSW 6.9 mph - N/A   Clear
11:15 PM 53.6 °F 50.0 °F 88% 30.08 in 10.0 mi WSW 5.8 mph - N/A   Clear
11:35 PM 53.6 °F 50.0 °F 88% 30.08 in 10.0 mi WSW 5.8 mph - N/A   Clear
11:36 PM 53.6 °F 50.0 °F 88% 30.08 in 10.0 mi WSW 5.8 mph - N/A   Clear
11:55 PM 53.6 °F 50.0 °F 88% 30.08 in 10.0 mi WSW 4.6 mph - N/A   Clear
11:56 PM 53.6 °F 50.0 °F 88% 30.08 in 10.0 mi WSW 4.6 mph - N/A   Clear